Regional Weather Roundup
Issued by NWS

Home | Current Version | Previous Version | Text Only | Print | Product List | Glossary On
Versions: 1 2 3 4 5 6 7 8 9 10 11 12 13 14 15 16 17 18 19 20 21 22 23 24 25 26 27 28 29 30 31 32 33 34 35 36 37 38 39 40 41 42 43 44 45 46 47 48 49 50
000
ASUS46 KSEW 010310
RWRWA

WASHINGTON REGIONAL WEATHER ROUNDUP
NATIONAL WEATHER SERVICE SEATTLE WA
800 PM PDT MON AUG 31 2015

NOTE:"FAIR" INDICATES FEW OR NO CLOUDS BELOW 12,000 FEET WITH NO
SIGNIFICANT WEATHER AND/OR OBSTRUCTIONS TO VISIBILITY.

WAZ505-507>509-010400-
SEATTLE, TACOMA, EVERETT, AND VICINITY

CITY           SKY/WX    TMP DP  RH WIND       PRES   REMARKS
EVERETT        CLOUDY    62  54  74 S18G33    29.87F
BOEING FIELD   LGT RAIN  65  56  72 S9        29.90S
RENTON         CLOUDY    66  55  67 S12       29.90F
SEATAC AIRPORT CLOUDY    63  56  78 SW10      29.92S
JBLM-MCCHORD   CLOUDY    66  54  66 SW13      29.92R
PUYALLUP       CLOUDY    64  59  82 CALM      29.94R
BREMERTON      CLOUDY    61  57  88 SW17G25   29.93S
JBLM-FT LEWIS  CLOUDY    65  54  67 S8        29.92R
TACOMA NARROWS LGT RAIN  61  57  87 SW9       29.93R
$$

WAZ001-503-506-510-514-515-010400-
NORTH INTERIOR

CITY           SKY/WX    TMP DP  RH WIND       PRES   REMARKS
BELLINGHAM     CLOUDY    63  57  81 SE15G22   29.82F
FRIDAY HARBOR  CLOUDY    59  57  93 CALM      29.85S
EASTSOUND      MOCLDY    59  57  94 SW7       29.82S
PORT ANGELES   CLOUDY    61  55  81 SE9       29.83F
PORT TOWNSEND  CLOUDY    61  57  88 CALM      29.83F
NAS WHIDBEY    CLOUDY    62  57  83 SE15G21   29.86F
ARLINGTON      CLOUDY    61  54  77 SE17      29.86F
BURLINGTON     CLOUDY    63  57  82 SE9G17    29.84F
$$

WAZ020-022-039-040-504-511-512-010400-
SOUTHWEST INTERIOR

CITY           SKY/WX    TMP DP  RH WIND       PRES   REMARKS
SHELTON        CLOUDY    62  57  83 SW13      29.89S
OLYMPIA        CLOUDY    64  54  69 SW8       29.93R
CHEHALIS       CLOUDY    66  55  68 CALM      29.94R
KELSO          NOT AVBL
VANCOUVER      PTCLDY    68  51  54 W6        29.94F
SCAPPOOSE, OR  PTCLDY    66  52  60 SW3       29.94S
PORTLAND, OR   MOCLDY    68  53  58 W7        29.95S
$$

WAZ021-516-517-010400-
WASHINGTON COAST

CITY           SKY/WX    TMP DP  RH WIND       PRES   REMARKS
FORKS          LGT RAIN  59  59 100 SW8       29.86F
HOQUIAM        CLOUDY    63  59  87 S13       29.92F FOG
ASTORIA, OR    CLOUDY    64  58  80 S7        29.94F
$$

WAZ019-023-024-040-518-519-010400-
CASCADE MOUNTAINS AND COLUMBIA GORGE

CITY           SKY/WX    TMP DP  RH WIND       PRES   REMARKS
TROUTDALE, OR  MOCLDY    69  53  56 VRB5      29.94F
THE DALLES, OR MOCLDY    70  51  51 NW16G28   29.89S
$$

WAZ026-027-041>044-520-521-010400-
EAST SLOPES

CITY           SKY/WX    TMP DP  RH WIND       PRES   REMARKS
OMAK           CLOUDY    64  51  62 SE3       29.80F
WENATCHEE      CLOUDY    70  42  36 W18G26    29.84S
ELLENSBURG     CLOUDY    64  48  56 NW17      29.88S
YAKIMA         MOCLDY    70  44  39 NW7       29.87S
$$

WAZ028-034-035-010400-
COLUMBIA BASIN

CITY           SKY/WX    TMP DP  RH WIND       PRES   REMARKS
EPHRATA        MOCLDY    69  46  43 W7        29.83S
MOSES LAKE     PTCLDY    71  44  37 W10       29.84S
PASCO          PTCLDY    73  46  38 W9        29.84R
HERMISTON, OR  PTCLDY    72  48  42 W14       29.86R
$$

WAZ036>038-010400-
NORTHEAST WASHINGTON

CITY           SKY/WX    TMP DP  RH WIND       PRES   REMARKS
SPOKANE GEIGER CLOUDY    68  45  43 SW8       29.87F
SPOKANE FELTS  MOCLDY    70  46  42 SW5       29.87F
FAIRCHILD AFB  CLOUDY    65  46  48 S8        29.88S
COEURDALENE,ID CLOUDY    63  46  55 SW5       29.88S
DEER PARK      MOCLDY    63  46  54 S9        29.86F
$$

WAZ029>033-010400-
SOUTHEAST WASHINGTON

CITY           SKY/WX    TMP DP  RH WIND       PRES   REMARKS
PULLMAN        PTCLDY    62  43  49 CALM      29.93S
LEWISTON, ID   MOCLDY    72  44  36 NW6       29.86S
WALLA WALLA    MOCLDY    73  47  39 S5        29.87S
PENDLETON, OR  MOCLDY    67  44  43 W7        29.89R
$$


USA.gov is the U.S. government's official web portal to all federal, state and local government web resources and services.